Tracking 22879 objects as of 21-Apr-2021
HD Live streaming from Space Station
objects crossing your sky now

FLOCK 3S 1

Track FLOCK 3S 1 now!
10-day predictions
FLOCK 3S 1 is classified as:


NORAD ID: 43769
Int'l Code: 2018-099M
Perigee: 579.8 km
Apogee: 597.7 km
Inclination: 97.7 °
Period: 96.3 minutes
Semi major axis: 6959 km
RCS: Unknown
Launch date: December 3, 2018
Source: United States (US)
Launch site: AIR FORCE WESTERN TEST RANGE (AFWTR)
aabbcc
Your satellite tracking list
Your tracking list is empty




NASA's NSSDC Master Catalog

Two Line Element Set (TLE):
1 43769U 18099M   21111.51447995  .00000225  00000-0  25597-4 0  9997
2 43769  97.6657 182.4898 0012888 242.6351 117.3559 14.95240088129948
Source of the keplerian elements: AFSPC